When you browse on this site, cookies collect data to enhance your experience and personalize the content and advertising you see.
Visit our Privacy Policy to learn more. By continuing to use the site, you agree to this use of cookies and data.
  • In France
  • List of Countries
  • For 7 days
  • Water Temperature
  • Satellite Maps
  • Weather Map
  • Weather Widgets
  • user-avatar
    Login

    Hourly Weather Oruro

    Today, 22 May, Wednesday

    Time Temperature Precipitation Wind Pressure Humidity
    00:00 +4°C° 0 mm 2 mps 474 mmHg 70%
    01:00 +4°C° 0 mm 2 mps 474 mmHg 73%
    02:00 +3°C° 0 mm 2 mps 473 mmHg 76%
    03:00 +3°C° 0 mm 2 mps 473 mmHg 77%
    04:00 +2°C° 0 mm 2 mps 473 mmHg 78%
    05:00 +2°C° 0 mm 2 mps 472 mmHg 78%
    06:00 +2°C° 0 mm 3 mps 473 mmHg 76%
    07:00 +2°C° 0 mm 3 mps 474 mmHg 73%
    08:00 +3°C° 0 mm 3 mps 474 mmHg 70%
    09:00 +5°C° 0 mm 5 mps 476 mmHg 58%
    10:00 +8°C° 0 mm 6 mps 477 mmHg 46%
    11:00 +10°C° 0 mm 7 mps 479 mmHg 33%
    12:00 +11°C° 0 mm 8 mps 479 mmHg 31%
    13:00 +12°C° 0 mm 8 mps 479 mmHg 28%
    14:00 +13°C° 0 mm 9 mps 479 mmHg 25%
    15:00 +13°C° 0 mm 9 mps 478 mmHg 24%
    16:00 +13°C° 0 mm 8 mps 478 mmHg 23%
    17:00 +13°C° 0 mm 8 mps 477 mmHg 22%
    18:00 +11°C° 0 mm 6 mps 477 mmHg 29%
    19:00 +10°C° 0 mm 4 mps 476 mmHg 36%
    20:00 +7°C° 0 mm 3 mps 475 mmHg 44%
    21:00 +7°C° 0 mm 2 mps 475 mmHg 45%
    22:00 +6°C° 0 mm 2 mps 475 mmHg 47%
    23:00 +6°C° 0 mm 2 mps 475 mmHg 49%

    Tomorrow, 23 May, Thursday

    Time Temperature Precipitation Wind Pressure Humidity
    00:00 +5°C° 0 mm 3 mps 475 mmHg 45%
    01:00 +5°C° 0 mm 3 mps 475 mmHg 42%
    02:00 +4°C° 0 mm 3 mps 475 mmHg 39%
    03:00 +4°C° 0 mm 3 mps 475 mmHg 38%
    04:00 +4°C° 0 mm 3 mps 474 mmHg 38%
    05:00 +3°C° 0 mm 3 mps 474 mmHg 37%
    06:00 +4°C° 0 mm 3 mps 475 mmHg 37%
    07:00 +4°C° 0 mm 3 mps 475 mmHg 37%
    08:00 +4°C° 0 mm 3 mps 475 mmHg 38%
    09:00 +6°C° 0 mm 5 mps 477 mmHg 32%
    10:00 +8°C° 0 mm 6 mps 478 mmHg 27%
    11:00 +10°C° 0 mm 8 mps 479 mmHg 21%
    12:00 +11°C° 0 mm 8 mps 479 mmHg 18%
    13:00 +12°C° 0 mm 9 mps 479 mmHg 15%
    14:00 +13°C° 0 mm 10 mps 479 mmHg 11%
    15:00 +13°C° 0 mm 10 mps 479 mmHg 10%
    16:00 +12°C° 0 mm 10 mps 478 mmHg 8%
    17:00 +12°C° 0 mm 9 mps 478 mmHg 7%
    18:00 +10°C° 0 mm 8 mps 477 mmHg 8%
    19:00 +6°C° 0 mm 7 mps 476 mmHg 9%
    20:00 +5°C° 0 mm 5 mps 475 mmHg 9%
    21:00 +4°C° 0 mm 4 mps 475 mmHg 12%
    22:00 +3°C° 0 mm 3 mps 474 mmHg 14%
    23:00 +2°C° 0 mm 2 mps 474 mmHg 17%

    Day after tomorrow, 24 May, Friday

    Time Temperature Precipitation Wind Pressure Humidity
    00:00 +1°C° 0 mm 2 mps 473 mmHg 18%
    01:00 +1°C° 0 mm 1 mps 472 mmHg 19%
    02:00 -1°C° 0 mm 0 mps 471 mmHg 21%
    03:00 -1°C° 0 mm 0 mps 471 mmHg 21%
    04:00 -2°C° 0 mm 0 mps 470 mmHg 21%
    05:00 -2°C° 0 mm 0 mps 469 mmHg 21%
    06:00 -1°C° 0 mm 0 mps 471 mmHg 20%
    07:00 +1°C° 0 mm 0 mps 473 mmHg 19%
    08:00 +2°C° 0 mm 0 mps 474 mmHg 18%
    09:00 +5°C° 0 mm 1 mps 476 mmHg 15%
    10:00 +7°C° 0 mm 1 mps 477 mmHg 11%
    11:00 +9°C° 0 mm 1 mps 478 mmHg 8%
    12:00 +9°C° 0 mm 2 mps 478 mmHg 7%
    13:00 +10°C° 0 mm 2 mps 478 mmHg 6%
    14:00 +11°C° 0 mm 3 mps 478 mmHg 5%
    15:00 +11°C° 0 mm 3 mps 477 mmHg 5%
    16:00 +11°C° 0 mm 3 mps 477 mmHg 5%
    17:00 +11°C° 0 mm 3 mps 477 mmHg 5%
    18:00 +9°C° 0 mm 3 mps 476 mmHg 9%
    19:00 +7°C° 0 mm 3 mps 475 mmHg 14%
    20:00 +4°C° 0 mm 3 mps 474 mmHg 18%
    21:00 +4°C° 0 mm 2 mps 473 mmHg 24%
    22:00 +3°C° 0 mm 2 mps 473 mmHg 29%
    23:00 +3°C° 0 mm 2 mps 473 mmHg 34%

    25 May, Saturday

    Time Temperature Precipitation Wind Pressure Humidity
    00:00 +2°C° 0 mm 2 mps 472 mmHg 31%
    01:00 +2°C° 0 mm 2 mps 472 mmHg 28%
    02:00 +1°C° 0 mm 3 mps 471 mmHg 26%
    03:00 0°C° 0 mm 3 mps 471 mmHg 22%
    04:00 0°C° 0 mm 3 mps 471 mmHg 19%
    05:00 -1°C° 0 mm 3 mps 470 mmHg 15%
    06:00 0°C° 0 mm 3 mps 471 mmHg 15%
    07:00 +2°C° 0 mm 2 mps 472 mmHg 14%
    08:00 +3°C° 0 mm 2 mps 474 mmHg 14%
    09:00 +4°C° 0 mm 3 mps 475 mmHg 12%
    10:00 +7°C° 0 mm 4 mps 477 mmHg 10%
    11:00 +10°C° 0 mm 5 mps 478 mmHg 9%
    12:00 +12°C° 0 mm 5 mps 478 mmHg 8%
    13:00 +13°C° 0 mm 5 mps 478 mmHg 8%
    14:00 +14°C° 0 mm 6 mps 478 mmHg 8%
    15:00 +14°C° 0 mm 5 mps 478 mmHg 9%
    16:00 +14°C° 0 mm 5 mps 478 mmHg 10%
    17:00 +13°C° 0 mm 5 mps 477 mmHg 11%
    18:00 +11°C° 0 mm 4 mps 476 mmHg 21%
    19:00 +8°C° 0 mm 4 mps 475 mmHg 31%
    20:00 +5°C° 0 mm 3 mps 474 mmHg 42%
    21:00 +5°C° 0 mm 3 mps 474 mmHg 42%
    22:00 +4°C° 0 mm 3 mps 474 mmHg 43%
    23:00 +5°C° 0 mm 2 mps 474 mmHg 44%

    26 May, Sunday

    Time Temperature Precipitation Wind Pressure Humidity
    00:00 +4°C° 0 mm 2 mps 473 mmHg 42%
    01:00 +4°C° 0 mm 1 mps 472 mmHg 41%
    02:00 +3°C° 0 mm 1 mps 472 mmHg 39%
    03:00 +2°C° 0 mm 1 mps 471 mmHg 40%
    04:00 +2°C° 0 mm 1 mps 471 mmHg 40%
    05:00 +1°C° 0 mm 1 mps 470 mmHg 41%
    06:00 +3°C° 0 mm 1 mps 472 mmHg 39%
    07:00 +4°C° 0 mm 1 mps 473 mmHg 36%
    08:00 +4°C° 0 mm 2 mps 474 mmHg 34%
    09:00 +5°C° 0 mm 3 mps 475 mmHg 27%
    10:00 +9°C° 0 mm 3 mps 477 mmHg 20%
    11:00 +11°C° 0 mm 4 mps 478 mmHg 13%
    12:00 +12°C° 0 mm 5 mps 478 mmHg 12%
    13:00 +13°C° 0 mm 6 mps 478 mmHg 12%
    14:00 +15°C° 0 mm 7 mps 478 mmHg 11%
    15:00 +14°C° 0 mm 7 mps 478 mmHg 14%
    16:00 +14°C° 0 mm 7 mps 478 mmHg 17%
    17:00 +14°C° 0 mm 6 mps 477 mmHg 20%
    18:00 +11°C° 0 mm 6 mps 476 mmHg 31%
    19:00 +8°C° 0 mm 5 mps 476 mmHg 42%
    20:00 +6°C° 0 mm 5 mps 475 mmHg 53%
    21:00 +6°C° 0 mm 4 mps 474 mmHg 55%
    22:00 +6°C° 0 mm 2 mps 474 mmHg 58%
    23:00 +6°C° 0 mm 1 mps 474 mmHg 60%

    27 May, Monday

    Time Temperature Precipitation Wind Pressure Humidity
    00:00 +5°C° 0 mm 1 mps 474 mmHg 56%
    01:00 +5°C° 0 mm 1 mps 473 mmHg 51%
    02:00 +4°C° 0 mm 1 mps 473 mmHg 47%
    03:00 +3°C° 0 mm 2 mps 472 mmHg 48%
    04:00 +3°C° 0 mm 2 mps 472 mmHg 50%
    05:00 +2°C° 0 mm 2 mps 472 mmHg 52%
    06:00 +1°C° 0 mm 3 mps 473 mmHg 48%
    07:00 +2°C° 0 mm 3 mps 473 mmHg 44%
    08:00 +2°C° 0 mm 3 mps 474 mmHg 41%
    09:00 +5°C° 0 mm 5 mps 476 mmHg 31%
    10:00 +8°C° 0 mm 7 mps 477 mmHg 21%
    11:00 +10°C° 0 mm 9 mps 479 mmHg 12%
    12:00 +11°C° 0 mm 9 mps 479 mmHg 11%
    13:00 +12°C° 0 mm 10 mps 479 mmHg 10%
    14:00 +14°C° 0 mm 10 mps 479 mmHg 9%
    15:00 +13°C° 0 mm 9 mps 479 mmHg 9%
    16:00 +13°C° 0 mm 8 mps 478 mmHg 8%
    17:00 +14°C° 0 mm 7 mps 478 mmHg 8%
    18:00 +10°C° 0 mm 6 mps 477 mmHg 10%
    19:00 +8°C° 0 mm 4 mps 476 mmHg 12%
    20:00 +5°C° 0 mm 3 mps 475 mmHg 15%
    21:00 +5°C° 0 mm 2 mps 475 mmHg 16%
    22:00 +4°C° 0 mm 2 mps 474 mmHg 18%
    23:00 +4°C° 0 mm 1 mps 474 mmHg 20%
    Show more